User: anonymous
Location: Unspecified
(0.0000°N, 0.0000°E)
Time: 05:21:09
(UTC+02:00)
Language:

NOAA 12 - Orbit

View from above orbital plane
View from above orbital plane
View from above satellite
View from above satellite

Ground track
Ground track

The orbit data is extracted from the following two-line orbital elements,

1 21263U 91032A   14210.33540602  .00000009  00000-0  22010-4 0  3587
2 21263 098.6622 236.6907 0014887 114.4592 007.5008 14.25672244206562
Epoch (UTC): 29 July 2014 08:02:59
Eccentricity: 0.0014887
inclination: 98.6622°
perigee height: 795 km
apogee height: 817 km
right ascension of ascending node: 236.6907°
argument of perigee: 114.4592°
revolutions per day: 14.25672244
mean anomaly at epoch: 7.5008°
orbit number at epoch: 20656

The dashed part of the orbit path shows where the satellite is in the earth's shadow,  

DLR